Total_Precipitation_Accumulation
0.03 0.04 0.06 0.12 0.35 0.67 0.77 0.58 0.50 0.51 0.55 0.47 0.44 0.44 0.56 0.73 1.04 1.88 1.24 0.76 0.50 0.39 0.44 0.45 0.60 0.58 0.57 0.57 0.61 0.68 0.80 0.86 0.98 0.99 0.99 1.04 1.10 1.07 1.01 1.11 1.28 1.52 1.76 1.92 2.05 2.25 2.60 2.81 2.75
0.04 0.06 0.10 0.20 0.54 0.76 0.77 0.57 0.56 0.52 0.49 0.46 0.44 0.45 0.46 0.59 0.56 0.73 0.75 0.77 0.69 0.58 0.54 0.48 0.62 0.64 0.58 0.57 0.64 0.74 0.86 0.92 1.09 1.09 0.95 1.01 1.07 1.10 1.06 1.15 1.31 1.59 1.89 2.14 2.15 2.21 2.46 2.50 2.50
0.04 0.06 0.13 0.32 0.55 0.62 0.75 0.58 0.61 0.56 0.46 0.45 0.50 0.54 0.61 0.78 0.82 0.94 0.98 0.88 0.86 0.75 0.64 0.61 0.71 0.73 0.70 0.67 0.70 0.78 0.92 1.00 1.11 1.03 1.04 1.12 1.18 1.19 1.20 1.21 1.28 1.52 1.95 2.24 2.17 2.18 2.22 2.27 2.39
0.05 0.09 0.20 0.40 0.49 0.41 0.56 0.61 0.58 0.62 0.52 0.48 0.53 0.71 0.76 0.84 0.92 0.98 0.89 0.82 0.78 0.69 0.61 0.57 0.69 0.70 0.73 0.70 0.71 0.85 0.95 1.05 1.15 1.18 1.19 1.22 1.37 1.41 1.32 1.35 1.46 1.58 1.91 2.22 2.23 2.26 2.24 2.24 2.35
0.05 0.13 0.31 0.45 0.41 0.31 0.41 0.52 0.65 0.72 0.66 0.57 0.62 0.93 1.25 1.24 1.13 1.02 0.87 0.85 0.86 0.71 0.64 0.55 0.62 0.71 0.73 0.79 0.85 1.05 1.16 1.23 1.33 1.36 1.33 1.35 1.46 1.52 1.45 1.51 1.63 1.77 1.89 2.12 2.20 2.16 2.13 2.09 2.25
0.06 0.16 0.33 0.43 0.40 0.32 0.38 0.50 0.60 0.66 0.61 0.55 0.69 1.15 1.81 1.67 1.31 1.40 1.33 1.01 0.99 0.87 0.76 0.65 0.65 0.81 0.93 0.98 1.01 1.17 1.21 1.30 1.38 1.45 1.42 1.39 1.39 1.37 1.38 1.50 1.61 1.81 1.98 2.07 2.03 1.94 1.93 1.99 2.08
0.07 0.17 0.28 0.37 0.47 0.44 0.45 0.50 0.61 0.63 0.65 0.68 0.94 1.43 1.92 1.84 1.53 1.56 1.53 1.17 1.10 0.94 0.78 0.74 0.72 0.92 1.17 1.24 1.18 1.20 1.17 1.28 1.40 1.52 1.54 1.41 1.34 1.25 1.28 1.38 1.47 1.70 1.83 1.85 1.90 1.87 1.76 1.79 1.97
0.06 0.12 0.20 0.29 0.51 0.53 0.49 0.55 0.58 0.54 0.65 0.81 1.09 1.46 1.83 1.81 1.55 1.41 1.38 1.29 1.23 1.19 1.04 1.02 1.01 1.09 1.19 1.23 1.26 1.23 1.20 1.33 1.44 1.51 1.55 1.48 1.44 1.36 1.40 1.34 1.46 1.60 1.80 1.99 2.08 1.98 1.81 1.80 1.95
0.07 0.13 0.20 0.30 0.48 0.51 0.49 0.49 0.49 0.48 0.56 0.83 0.96 1.01 1.35 1.48 1.46 1.53 1.54 1.41 1.42 1.43 1.48 1.40 1.33 1.34 1.32 1.28 1.30 1.43 1.43 1.49 1.51 1.58 1.55 1.54 1.63 1.69 1.68 1.49 1.61 1.73 1.91 2.16 2.20 2.12 2.05 1.99 2.09
0.09 0.19 0.22 0.23 0.29 0.36 0.44 0.47 0.41 0.48 0.56 0.83 1.16 1.08 1.12 1.35 1.56 1.74 1.84 1.78 1.76 1.76 1.81 1.78 1.79 1.76 1.71 1.62 1.80 1.94 1.72 1.66 1.65 1.83 1.66 1.70 2.03 2.12 1.87 2.02 2.19 2.38 2.44 2.43 2.34 2.26 2.17 2.08 2.11
0.10 0.16 0.21 0.26 0.23 0.28 0.36 0.42 0.37 0.53 0.74 0.84 1.21 1.53 1.46 1.63 1.90 2.19 2.14 2.25 2.27 2.14 1.86 1.81 2.09 2.19 2.25 2.38 2.28 2.30 2.28 2.25 2.18 2.31 2.19 2.22 2.37 2.28 2.38 2.58 2.51 2.51 2.60 2.51 2.57 2.36 2.03 1.92 2.12
0.12 0.16 0.22 0.24 0.22 0.22 0.27 0.38 0.42 0.57 0.91 1.02 1.29 1.57 1.93 1.98 2.17 2.26 2.37 2.43 2.41 2.42 2.23 1.99 2.06 2.16 2.37 2.57 2.57 2.53 2.45 2.40 2.37 2.49 2.33 2.47 2.66 2.79 2.88 3.07 2.87 2.81 2.77 2.89 2.85 2.68 2.34 2.08 2.03
0.14 0.15 0.17 0.20 0.18 0.16 0.29 0.41 0.41 0.51 0.64 0.87 1.14 1.36 1.79 1.89 2.00 2.32 2.66 2.96 2.97 2.80 2.67 2.49 2.25 2.24 2.44 2.76 2.92 2.87 2.95 2.77 2.80 2.93 2.72 2.68 2.76 2.84 3.20 3.31 3.58 3.25 3.16 3.29 3.22 3.00 2.84 2.55 2.34
0.13 0.12 0.14 0.18 0.17 0.18 0.27 0.35 0.40 0.45 0.55 0.68 0.80 1.05 1.39 1.65 1.95 2.56 3.01 3.31 3.59 3.44 3.11 2.83 2.68 2.59 2.59 2.75 3.09 3.22 3.05 3.07 3.06 3.18 3.08 3.01 3.06 3.19 3.55 3.73 3.91 3.72 3.71 3.93 3.94 3.71 3.48 3.18 3.08
0.13 0.15 0.18 0.18 0.21 0.18 0.22 0.39 0.45 0.51 0.54 0.64 0.73 0.92 1.33 1.80 2.08 2.81 3.38 3.70 3.93 3.66 3.51 3.24 3.14 3.19 3.00 2.93 3.24 3.37 3.25 3.16 3.19 3.39 3.47 3.33 3.40 3.74 3.88 4.25 4.28 4.08 4.05 4.13 4.14 4.38 4.29 3.76 3.48
0.15 0.23 0.31 0.22 0.20 0.17 0.22 0.49 0.54 0.56 0.62 0.72 0.82 1.02 1.36 1.83 2.15 2.51 2.94 3.37 3.83 3.89 3.70 3.56 3.19 3.21 3.43 3.44 3.73 3.66 3.72 3.85 3.81 3.83 4.02 3.93 3.96 4.08 4.14 4.21 4.30 4.25 4.24 4.60 4.81 4.75 4.68 4.43 4.05
0.18 0.22 0.26 0.25 0.19 0.18 0.20 0.40 0.56 0.55 0.59 0.74 0.89 1.22 1.66 1.81 2.08 2.20 2.57 2.86 3.28 3.37 3.50 3.57 3.50 3.47 3.51 3.71 4.14 4.29 4.51 4.66 4.81 4.82 5.02 4.91 4.66 4.57 4.66 4.66 4.84 4.68 4.76 4.80 4.65 5.10 5.08 4.97 4.51
0.13 0.15 0.19 0.25 0.20 0.20 0.23 0.32 0.58 0.70 0.69 0.81 0.94 1.15 1.52 1.68 2.10 2.33 2.47 2.53 3.03 3.37 3.52 3.61 3.80 4.02 4.01 4.08 4.40 4.87 5.10 5.19 5.50 5.54 5.55 5.58 5.55 5.42 5.44 5.41 5.46 5.31 5.17 5.13 5.13 5.24 4.99 4.82 4.58
0.09 0.12 0.15 0.18 0.17 0.19 0.29 0.44 0.62 0.76 0.80 1.03 1.25 1.32 1.38 1.58 2.10 2.55 2.70 2.81 3.20 3.51 3.73 3.64 3.85 4.28 4.56 4.95 4.99 5.22 5.67 5.99 6.07 6.11 6.08 5.97 5.91 5.96 5.84 5.68 5.86 5.67 5.39 5.19 5.16 5.15 5.02 4.64 4.61
0.06 0.11 0.14 0.17 0.18 0.20 0.35 0.57 0.65 0.76 0.87 1.18 1.43 1.42 1.40 1.58 1.96 2.44 2.69 3.08 3.39 3.51 3.76 3.88 4.03 4.55 5.04 5.61 6.14 6.55 6.98 7.00 7.10 7.02 6.90 6.52 6.34 6.29 6.10 6.14 5.95 5.75 5.65 5.36 5.16 5.14 5.04 4.64 4.70
0.05 0.07 0.11 0.16 0.21 0.25 0.39 0.71 0.83 0.95 1.06 1.26 1.39 1.35 1.46 1.67 2.00 2.33 2.66 3.04 3.36 3.55 3.80 3.96 4.32 4.95 5.78 6.42 6.96 7.50 7.85 7.59 7.37 7.04 6.86 6.71 6.68 6.64 6.48 6.42 6.12 5.93 5.67 5.33 5.08 4.96 4.89 4.76 4.75
0.07 0.08 0.08 0.12 0.23 0.37 0.41 0.82 1.16 1.29 1.40 1.36 1.39 1.54 1.69 1.82 1.98 2.24 2.56 2.91 3.22 3.57 3.71 3.93 4.63 5.34 5.99 6.67 7.33 7.90 8.16 8.15 7.95 7.36 6.86 6.48 6.22 5.93 5.83 5.86 5.75 5.58 5.26 5.03 4.68 4.59 4.55 4.73 4.52
0.08 0.09 0.11 0.14 0.21 0.35 0.42 0.78 1.40 1.70 1.76 1.73 1.76 1.84 1.85 1.83 1.95 2.15 2.42 2.70 2.89 3.28 3.69 3.99 4.70 5.48 6.15 6.96 7.73 8.16 8.32 8.29 7.95 7.19 6.47 5.92 5.54 5.15 4.92 4.97 4.91 4.75 4.55 4.40 4.33 4.40 4.29 4.21 4.03
0.08 0.11 0.16 0.21 0.30 0.47 0.47 0.77 1.52 1.95 2.11 2.14 2.05 2.06 1.97 1.87 1.84 1.91 2.20 2.40 2.72 3.09 3.56 4.09 4.49 5.17 6.01 6.63 7.16 7.33 7.49 7.45 7.05 6.61 6.09 5.70 5.16 4.64 4.25 4.13 4.07 3.88 3.73 3.74 3.77 3.86 3.79 3.82 3.84
0.09 0.21 0.43 0.59 0.65 0.60 0.46 0.78 1.52 1.84 1.80 1.88 1.89 1.94 1.92 1.75 1.78 2.03 2.32 2.30 2.62 3.01 3.47 3.99 4.43 4.93 5.57 6.13 6.55 6.73 6.87 6.78 6.29 5.84 5.41 4.96 4.41 3.99 3.66 3.48 3.44 3.32 3.25 3.25 3.42 3.54 3.45 3.41 3.47
0.10 0.20 0.49 0.74 0.77 0.77 0.74 1.19 1.76 1.85 1.70 1.54 1.58 1.72 1.85 1.85 1.86 1.99 2.16 2.29 2.63 2.92 3.22 3.61 3.96 4.40 4.70 5.02 5.50 5.74 5.88 5.69 5.33 4.89 4.36 4.02 3.67 3.33 3.17 3.04 2.96 2.88 2.77 2.72 2.98 3.08 3.12 3.13 3.18
0.13 0.18 0.27 0.38 0.46 0.78 1.19 1.55 1.95 1.95 1.85 1.66 1.56 1.64 1.77 1.77 1.83 2.02 2.23 2.43 2.64 2.99 3.45 3.62 3.61 3.85 4.12 4.43 4.64 4.70 4.75 4.63 4.39 4.12 3.77 3.39 3.07 2.78 2.64 2.58 2.57 2.53 2.50 2.54 2.75 2.81 2.76 2.86 2.85
0.12 0.16 0.23 0.39 0.73 1.03 1.36 1.98 2.39 2.49 2.44 2.25 1.85 1.75 1.71 1.80 1.90 2.04 2.18 2.40 2.51 2.64 3.01 3.31 3.39 3.49 3.58 3.70 3.75 3.69 3.84 3.76 3.69 3.52 3.26 2.95 2.74 2.50 2.45 2.38 2.36 2.38 2.33 2.31 2.46 2.56 2.62 2.66 2.64
0.17 0.19 0.25 0.40 0.55 1.01 1.51 2.22 2.44 2.76 2.88 2.74 2.33 2.18 2.16 2.20 2.11 2.10 2.08 2.14 2.33 2.46 2.63 2.92 3.17 3.24 3.28 3.38 3.37 3.27 3.39 3.40 3.42 3.28 3.07 2.92 2.84 2.70 2.52 2.41 2.47 2.44 2.34 2.29 2.32 2.22 2.31 2.44 2.54
0.17 0.22 0.34 0.63 0.69 0.78 1.35 2.42 2.67 2.83 2.77 2.53 2.41 2.32 2.18 2.07 1.93 1.89 1.87 1.92 2.05 2.29 2.57 2.82 3.01 2.95 2.96 3.05 3.20 3.31 3.37 3.31 3.22 3.00 2.86 2.75 2.60 2.44 2.40 2.39 2.43 2.39 2.30 2.28 2.18 2.04 2.13 2.29 2.40